Einspeiselastfluss_MSP-NSP_2018;
Mo., 01.01.2018 00:15;21,4
Mo., 01.01.2018 00:30;21
Mo., 01.01.2018 00:45;33,152
Mo., 01.01.2018 01:00;43,452
Mo., 01.01.2018 01:15;40
Mo., 01.01.2018 01:30;44,152
Mo., 01.01.2018 01:45;47,352
Mo., 01.01.2018 02:00;46,052
Mo., 01.01.2018 02:15;28,6
Mo., 01.01.2018 02:30;24,552
Mo., 01.01.2018 02:45;24,852
Mo., 01.01.2018 03:00;25,5
Mo., 01.01.2018 03:15;25,1
Mo., 01.01.2018 03:30;28,3
Mo., 01.01.2018 03:45;34
Mo., 01.01.2018 04:00;35,652
Mo., 01.01.2018 04:15;26,6
Mo., 01.01.2018 04:30;24,9
Mo., 01.01.2018 04:45;22,7
Mo., 01.01.2018 05:00;24
Mo., 01.01.2018 05:15;22,952
Mo., 01.01.2018 05:30;26,452
Mo., 01.01.2018 05:45;31,8
Mo., 01.01.2018 06:00;28,7
Mo., 01.01.2018 06:15;21,7
Mo., 01.01.2018 06:30;15,7
Mo., 01.01.2018 06:45;16,952
Mo., 01.01.2018 07:00;14,652
Mo., 01.01.2018 07:15;14,1
Mo., 01.01.2018 07:30;13,6
Mo., 01.01.2018 07:45;16,252
Mo., 01.01.2018 08:00;9,6
Mo., 01.01.2018 08:15;6,852
Mo., 01.01.2018 08:30;11,5
Mo., 01.01.2018 08:45;13
Mo., 01.01.2018 09:00;14,8
Mo., 01.01.2018 09:15;22,152
Mo., 01.01.2018 09:30;23,952
Mo., 01.01.2018 09:45;19,98
Mo., 01.01.2018 10:00;23,7
Mo., 01.01.2018 10:15;24,2
Mo., 01.01.2018 10:30;36,62
Mo., 01.01.2018 10:45;55,12
Mo., 01.01.2018 11:00;136,9
Mo., 01.01.2018 11:15;139,4
Mo., 01.01.2018 11:30;155,88
Mo., 01.01.2018 11:45;92,74
Mo., 01.01.2018 12:00;57,34
Mo., 01.01.2018 12:15;47,8
Mo., 01.01.2018 12:30;30,04
Mo., 01.01.2018 12:45;57,18
Mo., 01.01.2018 13:00;63,24
Mo., 01.01.2018 13:15;128,1
Mo., 01.01.2018 13:30;134,42
Mo., 01.01.2018 13:45;235,2
Mo., 01.01.2018 14:00;207,12
Mo., 01.01.2018 14:15;182
Mo., 01.01.2018 14:30;176,88
Mo., 01.01.2018 14:45;75,772
Mo., 01.01.2018 15:00;55,68
Mo., 01.01.2018 15:15;109,7
Mo., 01.01.2018 15:30;46,8
Mo., 01.01.2018 15:45;20,3
Mo., 01.01.2018 16:00;8
Mo., 01.01.2018 16:15;2,1
Mo., 01.01.2018 16:30;0,352
Mo., 01.01.2018 16:45;1,152
Mo., 01.01.2018 17:00;13,052
Mo., 01.01.2018 17:15;0,3
Mo., 01.01.2018 17:30;0,052
Mo., 01.01.2018 17:45;0
Mo., 01.01.2018 18:00;4,7
Mo., 01.01.2018 18:15;17,848
Mo., 01.01.2018 18:30;22,952
Mo., 01.01.2018 18:45;17,752
Mo., 01.01.2018 19:00;2,5
Mo., 01.01.2018 19:15;0,6
Mo., 01.01.2018 19:30;0,4
Mo., 01.01.2018 19:45;0
Mo., 01.01.2018 20:00;0
Mo., 01.01.2018 20:15;0
Mo., 01.01.2018 20:30;0
Mo., 01.01.2018 20:45;0
Mo., 01.01.2018 21:00;0
Mo., 01.01.2018 21:15;0
Mo., 01.01.2018 21:30;0,7
Mo., 01.01.2018 21:45;1
Mo., 01.01.2018 22:00;0
Mo., 01.01.2018 22:15;7,1
Mo., 01.01.2018 22:30;12,9
Mo., 01.01.2018 22:45;27,452
Mo., 01.01.2018 23:00;30,452
Mo., 01.01.2018 23:15;28,5
Mo., 01.01.2018 23:30;13,6
Mo., 01.01.2018 23:45;16
Mo., 01.01.2018 00:00;19,9
Di., 02.01.2018 00:15;20,4
Di., 02.01.2018 00:30;21
Di., 02.01.2018 00:45;21,4
Di., 02.01.2018 01:00;16,5
Di., 02.01.2018 01:15;19,1
Di., 02.01.2018 01:30;21,8
Di., 02.01.2018 01:45;23,1
Di., 02.01.2018 02:00;23,752
Di., 02.01.2018 02:15;24,2
Di., 02.01.2018 02:30;22,9
Di., 02.01.2018 02:45;30,152
Di., 02.01.2018 03:00;45,752
Di., 02.01.2018 03:15;36,3
Di., 02.01.2018 03:30;24,5
Di., 02.01.2018 03:45;23,9
Di., 02.01.2018 04:00;30,8
Di., 02.01.2018 04:15;31,8
Di., 02.01.2018 04:30;22,3
Di., 02.01.2018 04:45;24,3
Di., 02.01.2018 05:00;23,1
Di., 02.01.2018 05:15;21,6
Di., 02.01.2018 05:30;25,052
Di., 02.01.2018 05:45;34,504
Di., 02.01.2018 06:00;29,7
Di., 02.01.2018 06:15;19,7
Di., 02.01.2018 06:30;21,852
Di., 02.01.2018 06:45;23,5
Di., 02.01.2018 07:00;16,3
Di., 02.01.2018 07:15;13,552
Di., 02.01.2018 07:30;8,4
Di., 02.01.2018 07:45;1,5
Di., 02.01.2018 08:00;2,2
Di., 02.01.2018 08:15;2,152
Di., 02.01.2018 08:30;0,552
Di., 02.01.2018 08:45;0,3
Di., 02.01.2018 09:00;9,848
Di., 02.01.2018 09:15;11,552
Di., 02.01.2018 09:30;24,7
Di., 02.01.2018 09:45;18,852
Di., 02.01.2018 10:00;29,22
Di., 02.01.2018 10:15;39,712
Di., 02.01.2018 10:30;45,692
Di., 02.01.2018 10:45;44,1
Di., 02.01.2018 11:00;37,152
Di., 02.01.2018 11:15;34,012
Di., 02.01.2018 11:30;37,652
Di., 02.01.2018 11:45;9,04
Di., 02.01.2018 12:00;12,22
Di., 02.01.2018 12:15;23,8
Di., 02.01.2018 12:30;23,7
Di., 02.01.2018 12:45;36
Di., 02.01.2018 13:00;26,5
Di., 02.01.2018 13:15;35,78
Di., 02.01.2018 13:30;30,76
Di., 02.01.2018 13:45;54,6
Di., 02.01.2018 14:00;97,7
Di., 02.01.2018 14:15;175,04
Di., 02.01.2018 14:30;120,34
Di., 02.01.2018 14:45;50,2
Di., 02.01.2018 15:00;119,4
Di., 02.01.2018 15:15;15
Di., 02.01.2018 15:30;3,6
Di., 02.01.2018 15:45;1,8
Di., 02.01.2018 16:00;1,6
Di., 02.01.2018 16:15;0,6
Di., 02.01.2018 16:30;0
Di., 02.01.2018 16:45;0
Di., 02.01.2018 17:00;0
Di., 02.01.2018 17:15;0
Di., 02.01.2018 17:30;0
Di., 02.01.2018 17:45;0
Di., 02.01.2018 18:00;0
Di., 02.01.2018 18:15;0
Di., 02.01.2018 18:30;0
Di., 02.01.2018 18:45;0
Di., 02.01.2018 19:00;0
Di., 02.01.2018 19:15;0
Di., 02.01.2018 19:30;0
Di., 02.01.2018 19:45;0
Di., 02.01.2018 20:00;0
Di., 02.01.2018 20:15;0
Di., 02.01.2018 20:30;0
Di., 02.01.2018 20:45;0
Di., 02.01.2018 21:00;0
Di., 02.01.2018 21:15;0
Di., 02.01.2018 21:30;0,352
Di., 02.01.2018 21:45;1,9
Di., 02.01.2018 22:00;31,2
Di., 02.01.2018 22:15;2,452
Di., 02.01.2018 22:30;3,8
Di., 02.01.2018 22:45;15,9
Di., 02.01.2018 23:00;15,7
Di., 02.01.2018 23:15;16,4
Di., 02.01.2018 23:30;18
Di., 02.01.2018 23:45;13
Di., 02.01.2018 00:00;17,8
Mi., 03.01.2018 00:15;19,8
Mi., 03.01.2018 00:30;15,8
Mi., 03.01.2018 00:45;18,3
Mi., 03.01.2018 01:00;20,2
Mi., 03.01.2018 01:15;21,3
Mi., 03.01.2018 01:30;36,2
Mi., 03.01.2018 01:45;36,7
Mi., 03.01.2018 02:00;38,1
Mi., 03.01.2018 02:15;32,1
Mi., 03.01.2018 02:30;20,9
Mi., 03.01.2018 02:45;22,9
Mi., 03.01.2018 03:00;25,252
Mi., 03.01.2018 03:15;39,152
Mi., 03.01.2018 03:30;53,6
Mi., 03.01.2018 03:45;42,5
Mi., 03.01.2018 04:00;21,5
Mi., 03.01.2018 04:15;22,6
Mi., 03.01.2018 04:30;23,5
Mi., 03.01.2018 04:45;21,5
Mi., 03.01.2018 05:00;21,8
Mi., 03.01.2018 05:15;17,1
Mi., 03.01.2018 05:30;23,1
Mi., 03.01.2018 05:45;25,6
Mi., 03.01.2018 06:00;20,7
Mi., 03.01.2018 06:15;17,4
Mi., 03.01.2018 06:30;15,9
Mi., 03.01.2018 06:45;13,1
Mi., 03.01.2018 07:00;11,6
Mi., 03.01.2018 07:15;10,8
Mi., 03.01.2018 07:30;6,2
Mi., 03.01.2018 07:45;0,5
Mi., 03.01.2018 08:00;2,4
Mi., 03.01.2018 08:15;0
Mi., 03.01.2018 08:30;1,7
Mi., 03.01.2018 08:45;2,2
Mi., 03.01.2018 09:00;3,2
Mi., 03.01.2018 09:15;6,5
Mi., 03.01.2018 09:30;14,2
Mi., 03.01.2018 09:45;3,9
Mi., 03.01.2018 10:00;0,4
Mi., 03.01.2018 10:15;2,5
Mi., 03.01.2018 10:30;24,56
Mi., 03.01.2018 10:45;28,56
Mi., 03.01.2018 11:00;22,8
Mi., 03.01.2018 11:15;29,74
Mi., 03.01.2018 11:30;36,28
Mi., 03.01.2018 11:45;66,96
Mi., 03.01.2018 12:00;81,8
Mi., 03.01.2018 12:15;82,78
Mi., 03.01.2018 12:30;33,14
Mi., 03.01.2018 12:45;124,8
Mi., 03.01.2018 13:00;94,46
Mi., 03.01.2018 13:15;92,86
Mi., 03.01.2018 13:30;97,98
Mi., 03.01.2018 13:45;46,1
Mi., 03.01.2018 14:00;36,08
Mi., 03.01.2018 14:15;21,52
Mi., 03.01.2018 14:30;19,6
Mi., 03.01.2018 14:45;20,48
Mi., 03.01.2018 15:00;9,94
Mi., 03.01.2018 15:15;8,76
Mi., 03.01.2018 15:30;10,6
Mi., 03.01.2018 15:45;3,8
Mi., 03.01.2018 16:00;1,6
Mi., 03.01.2018 16:15;0,6
Mi., 03.01.2018 16:30;0,2
Mi., 03.01.2018 16:45;0,3
Mi., 03.01.2018 17:00;0
Mi., 03.01.2018 17:15;0
Mi., 03.01.2018 17:30;0
Mi., 03.01.2018 17:45;0,1
Mi., 03.01.2018 18:00;0
Mi., 03.01.2018 18:15;1,652
Mi., 03.01.2018 18:30;16,6
Mi., 03.01.2018 18:45;18,2
Mi., 03.01.2018 19:00;19,352
Mi., 03.01.2018 19:15;23,7
Mi., 03.01.2018 19:30;18,7
Mi., 03.01.2018 19:45;7,048
Mi., 03.01.2018 20:00;0
Mi., 03.01.2018 20:15;0
Mi., 03.01.2018 20:30;0
Mi., 03.01.2018 20:45;2,8
Mi., 03.01.2018 21:00;0,3
Mi., 03.01.2018 21:15;0,2
Mi., 03.01.2018 21:30;0,3
Mi., 03.01.2018 21:45;0,3
Mi., 03.01.2018 22:00;1,5
Mi., 03.01.2018 22:15;1,9
Mi., 03.01.2018 22:30;3,5
Mi., 03.01.2018 22:45;3,2
Mi., 03.01.2018 23:00;0,5
Mi., 03.01.2018 23:15;2,7
Mi., 03.01.2018 23:30;3,3
Mi., 03.01.2018 23:45;10,1
Mi., 03.01.2018 00:00;7,5
Do., 04.01.2018 00:15;27,4
Do., 04.01.2018 00:30;35,7
Do., 04.01.2018 00:45;35,9
Do., 04.01.2018 01:00;34,3
Do., 04.01.2018 01:15;36,2
Do., 04.01.2018 01:30;20,9
Do., 04.01.2018 01:45;20,8
Do., 04.01.2018 02:00;20,6
Do., 04.01.2018 02:15;21,1
Do., 04.01.2018 02:30;22,5
Do., 04.01.2018 02:45;22,4
Do., 04.01.2018 03:00;23,5
Do., 04.01.2018 03:15;23,2
Do., 04.01.2018 03:30;23,6
Do., 04.01.2018 03:45;21,8
Do., 04.01.2018 04:00;23,5
Do., 04.01.2018 04:15;23,6
Do., 04.01.2018 04:30;23,1
Do., 04.01.2018 04:45;21,1
Do., 04.01.2018 05:00;17,4
Do., 04.01.2018 05:15;20
Do., 04.01.2018 05:30;23,4
Do., 04.01.2018 05:45;26,5
Do., 04.01.2018 06:00;26,2
Do., 04.01.2018 06:15;19,3
Do., 04.01.2018 06:30;17,5
Do., 04.01.2018 06:45;13,5
Do., 04.01.2018 07:00;12,4
Do., 04.01.2018 07:15;11,7
Do., 04.01.2018 07:30;4,3
Do., 04.01.2018 07:45;0,6
Do., 04.01.2018 08:00;0,9
Do., 04.01.2018 08:15;0,1
Do., 04.01.2018 08:30;0
Do., 04.01.2018 08:45;0
Do., 04.01.2018 09:00;3,6
Do., 04.01.2018 09:15;21,452
Do., 04.01.2018 09:30;21,1
Do., 04.01.2018 09:45;33,6
Do., 04.01.2018 10:00;40,652
Do., 04.01.2018 10:15;40,552
Do., 04.01.2018 10:30;31,9
Do., 04.01.2018 10:45;30,6
Do., 04.01.2018 11:00;23,32
Do., 04.01.2018 11:15;18,16
Do., 04.01.2018 11:30;29,852
Do., 04.01.2018 11:45;38,8
Do., 04.01.2018 12:00;31,7
Do., 04.01.2018 12:15;21,4
Do., 04.01.2018 12:30;25,7
Do., 04.01.2018 12:45;46,64
Do., 04.01.2018 13:00;72,352
Do., 04.01.2018 13:15;44,22
Do., 04.01.2018 13:30;28,28
Do., 04.01.2018 13:45;27,452
Do., 04.01.2018 14:00;23,752
Do., 04.01.2018 14:15;18,4
Do., 04.01.2018 14:30;12,8
Do., 04.01.2018 14:45;6,6
Do., 04.01.2018 15:00;15,7
Do., 04.01.2018 15:15;16,9
Do., 04.01.2018 15:30;12,552
Do., 04.01.2018 15:45;15,548
Do., 04.01.2018 16:00;5,052
Do., 04.01.2018 16:15;1
Do., 04.01.2018 16:30;0,1
Do., 04.01.2018 16:45;5,452
Do., 04.01.2018 17:00;8,452
Do., 04.01.2018 17:15;6,1
Do., 04.01.2018 17:30;7,552
Do., 04.01.2018 17:45;11,252
Do., 04.01.2018 18:00;4
Do., 04.01.2018 18:15;0,6
Do., 04.01.2018 18:30;0,1
Do., 04.01.2018 18:45;0,5
Do., 04.01.2018 19:00;1,2
Do., 04.01.2018 19:15;0
Do., 04.01.2018 19:30;0
Do., 04.01.2018 19:45;0
Do., 04.01.2018 20:00;0,5
Do., 04.01.2018 20:15;3,3
Do., 04.01.2018 20:30;0,6
Do., 04.01.2018 20:45;0
Do., 04.01.2018 21:00;0
Do., 04.01.2018 21:15;0
Do., 04.01.2018 21:30;0
Do., 04.01.2018 21:45;0
Do., 04.01.2018 22:00;1,6
Do., 04.01.2018 22:15;2,2
Do., 04.01.2018 22:30;5,2
Do., 04.01.2018 22:45;7,9
Do., 04.01.2018 23:00;12,4
Do., 04.01.2018 23:15;13,8
Do., 04.01.2018 23:30;13,8
Do., 04.01.2018 23:45;13,6
Do., 04.01.2018 00:00;14,6
Fr., 05.01.2018 00:15;15,1
Fr., 05.01.2018 00:30;16,4
Fr., 05.01.2018 00:45;16,5
Fr., 05.01.2018 01:00;16,2
Fr., 05.01.2018 01:15;16,8
Fr., 05.01.2018 01:30;13,1
Fr., 05.01.2018 01:45;17,7
Fr., 05.01.2018 02:00;19
Fr., 05.01.2018 02:15;19,1
Fr., 05.01.2018 02:30;18,9
Fr., 05.01.2018 02:45;16,7
Fr., 05.01.2018 03:00;17,2
Fr., 05.01.2018 03:15;20
Fr., 05.01.2018 03:30;20,8
Fr., 05.01.2018 03:45;21,3
Fr., 05.01.2018 04:00;20,8
Fr., 05.01.2018 04:15;20,5
Fr., 05.01.2018 04:30;19,4
Fr., 05.01.2018 04:45;19,6
Fr., 05.01.2018 05:00;18,7
Fr., 05.01.2018 05:15;19,6
Fr., 05.01.2018 05:30;18,7
Fr., 05.01.2018 05:45;26,6
Fr., 05.01.2018 06:00;25,6
Fr., 05.01.2018 06:15;17,5
Fr., 05.01.2018 06:30;16,5
Fr., 05.01.2018 06:45;15,6
Fr., 05.01.2018 07:00;11,3
Fr., 05.01.2018 07:15;11,348
Fr., 05.01.2018 07:30;9,052
Fr., 05.01.2018 07:45;2,552
Fr., 05.01.2018 08:00;0
Fr., 05.01.2018 08:15;2,552
Fr., 05.01.2018 08:30;10,152
Fr., 05.01.2018 08:45;9,048
Fr., 05.01.2018 09:00;8
Fr., 05.01.2018 09:15;5,5
Fr., 05.01.2018 09:30;17,852
Fr., 05.01.2018 09:45;19,2
Fr., 05.01.2018 10:00;20,6
Fr., 05.01.2018 10:15;22,26
Fr., 05.01.2018 10:30;36,28
Fr., 05.01.2018 10:45;48,5
Fr., 05.01.2018 11:00;71,64
Fr., 05.01.2018 11:15;84,72
Fr., 05.01.2018 11:30;126,18
Fr., 05.01.2018 11:45;125,8
Fr., 05.01.2018 12:00;68,84
Fr., 05.01.2018 12:15;73,26
Fr., 05.01.2018 12:30;75,34
Fr., 05.01.2018 12:45;112,92
Fr., 05.01.2018 13:00;58,72
Fr., 05.01.2018 13:15;27,2
Fr., 05.01.2018 13:30;31,6
Fr., 05.01.2018 13:45;20,8
Fr., 05.01.2018 14:00;27,9
Fr., 05.01.2018 14:15;27,552
Fr., 05.01.2018 14:30;26,352
Fr., 05.01.2018 14:45;21,8
Fr., 05.01.2018 15:00;13,7
Fr., 05.01.2018 15:15;12,8
Fr., 05.01.2018 15:30;9,152
Fr., 05.01.2018 15:45;6,1
Fr., 05.01.2018 16:00;4,6
Fr., 05.01.2018 16:15;2,5
Fr., 05.01.2018 16:30;0,4
Fr., 05.01.2018 16:45;0
Fr., 05.01.2018 17:00;0,6
Fr., 05.01.2018 17:15;2,2
Fr., 05.01.2018 17:30;0,9
Fr., 05.01.2018 17:45;0,5
Fr., 05.01.2018 18:00;0,3
Fr., 05.01.2018 18:15;0
Fr., 05.01.2018 18:30;0
Fr., 05.01.2018 18:45;0
Fr., 05.01.2018 19:00;0
Fr., 05.01.2018 19:15;0,7
Fr., 05.01.2018 19:30;0,8
Fr., 05.01.2018 19:45;1,8
Fr., 05.01.2018 20:00;2,1
Fr., 05.01.2018 20:15;2
Fr., 05.01.2018 20:30;0,552
Fr., 05.01.2018 20:45;0
Fr., 05.01.2018 21:00;0
Fr., 05.01.2018 21:15;0
Fr., 05.01.2018 21:30;0
Fr., 05.01.2018 21:45;0
Fr., 05.01.2018 22:00;0
Fr., 05.01.2018 22:15;0,4
Fr., 05.01.2018 22:30;11,9
Fr., 05.01.2018 22:45;16
Fr., 05.01.2018 23:00;14,9
Fr., 05.01.2018 23:15;24,7
Fr., 05.01.2018 23:30;32,9
Fr., 05.01.2018 23:45;33,6
Fr., 05.01.2018 00:00;33,6
Sa., 06.01.2018 00:15;33,9
Sa., 06.01.2018 00:30;35,9
Sa., 06.01.2018 00:45;36,1
Sa., 06.01.2018 01:00;37,2
Sa., 06.01.2018 01:15;37,9
Sa., 06.01.2018 01:30;34,8
Sa., 06.01.2018 01:45;38,7
Sa., 06.01.2018 02:00;39
Sa., 06.01.2018 02:15;39,452
Sa., 06.01.2018 02:30;30,9
Sa., 06.01.2018 02:45;19,1
Sa., 06.01.2018 03:00;20,5
Sa., 06.01.2018 03:15;22,752
Sa., 06.01.2018 03:30;21,3
Sa., 06.01.2018 03:45;21,5
Sa., 06.01.2018 04:00;22,5
Sa., 06.01.2018 04:15;21,3
Sa., 06.01.2018 04:30;21,4
Sa., 06.01.2018 04:45;23,9
Sa., 06.01.2018 05:00;24,6
Sa., 06.01.2018 05:15;22,548
Sa., 06.01.2018 05:30;25,5
Sa., 06.01.2018 05:45;32,7
Sa., 06.01.2018 06:00;31,2
Sa., 06.01.2018 06:15;24,052
Sa., 06.01.2018 06:30;21,8
Sa., 06.01.2018 06:45;21,6
Sa., 06.01.2018 07:00;34
Sa., 06.01.2018 07:15;54,452
Sa., 06.01.2018 07:30;49,752
Sa., 06.01.2018 07:45;22,5
Sa., 06.01.2018 08:00;14,052
Sa., 06.01.2018 08:15;9,7
Sa., 06.01.2018 08:30;3,7
Sa., 06.01.2018 08:45;6,4
Sa., 06.01.2018 09:00;12,252
Sa., 06.01.2018 09:15;18,152
Sa., 06.01.2018 09:30;32,8
Sa., 06.01.2018 09:45;35,8
Sa., 06.01.2018 10:00;49
Sa., 06.01.2018 10:15;58,9
Sa., 06.01.2018 10:30;67,4
Sa., 06.01.2018 10:45;93,14
Sa., 06.01.2018 11:00;77,66
Sa., 06.01.2018 11:15;72,572
Sa., 06.01.2018 11:30;71,68
Sa., 06.01.2018 11:45;73,5
Sa., 06.01.2018 12:00;79,06
Sa., 06.01.2018 12:15;73,96
Sa., 06.01.2018 12:30;69,14
Sa., 06.01.2018 12:45;63,24
Sa., 06.01.2018 13:00;59,7
Sa., 06.01.2018 13:15;55,84
Sa., 06.01.2018 13:30;53,2
Sa., 06.01.2018 13:45;37,38
Sa., 06.01.2018 14:00;40,74
Sa., 06.01.2018 14:15;37,8
Sa., 06.01.2018 14:30;39,8
Sa., 06.01.2018 14:45;30,9
Sa., 06.01.2018 15:00;25,752
Sa., 06.01.2018 15:15;25,3
Sa., 06.01.2018 15:30;12,3
Sa., 06.01.2018 15:45;7,1
Sa., 06.01.2018 16:00;5,1
Sa., 06.01.2018 16:15;4,3
Sa., 06.01.2018 16:30;2,4
Sa., 06.01.2018 16:45;0,9
Sa., 06.01.2018 17:00;4,7
Sa., 06.01.2018 17:15;4,6
Sa., 06.01.2018 17:30;2,9
Sa., 06.01.2018 17:45;3,6
Sa., 06.01.2018 18:00;2,8
Sa., 06.01.2018 18:15;0,9
Sa., 06.01.2018 18:30;1,7
Sa., 06.01.2018 18:45;0,5
Sa., 06.01.2018 19:00;1,452
Sa., 06.01.2018 19:15;2,9
Sa., 06.01.2018 19:30;2,2
Sa., 06.01.2018 19:45;2,5
Sa., 06.01.2018 20:00;2,6
Sa., 06.01.2018 20:15;1,4
Sa., 06.01.2018 20:30;1,3
Sa., 06.01.2018 20:45;0
Sa., 06.01.2018 21:00;0
Sa., 06.01.2018 21:15;0
Sa., 06.01.2018 21:30;0
Sa., 06.01.2018 21:45;0,4
Sa., 06.01.2018 22:00;10,4
Sa., 06.01.2018 22:15;6,6
Sa., 06.01.2018 22:30;7,9
Sa., 06.01.2018 22:45;11,2
Sa., 06.01.2018 23:00;10,3
Sa., 06.01.2018 23:15;13,9
Sa., 06.01.2018 23:30;10
Sa., 06.01.2018 23:45;10,3
Sa., 06.01.2018 00:00;15,2
So., 07.01.2018 00:15;16,7
So., 07.01.2018 00:30;12,6
So., 07.01.2018 00:45;12,2
So., 07.01.2018 01:00;19
So., 07.01.2018 01:15;15,6
So., 07.01.2018 01:30;12,5
So., 07.01.2018 01:45;18,2
So., 07.01.2018 02:00;19,7
So., 07.01.2018 02:15;10,2
So., 07.01.2018 02:30;15,6
So., 07.01.2018 02:45;20,6
So., 07.01.2018 03:00;16,1
So., 07.01.2018 03:15;14,2
So., 07.01.2018 03:30;17
So., 07.01.2018 03:45;19,2
So., 07.01.2018 04:00;14,3
So., 07.01.2018 04:15;15,1
So., 07.01.2018 04:30;19,8
So., 07.01.2018 04:45;20,6
So., 07.01.2018 05:00;20,4
So., 07.01.2018 05:15;20,1
So., 07.01.2018 05:30;20,5
So., 07.01.2018 05:45;19
So., 07.01.2018 06:00;20
So., 07.01.2018 06:15;21
So., 07.01.2018 06:30;19,8
So., 07.01.2018 06:45;15,8
So., 07.01.2018 07:00;14,8
So., 07.01.2018 07:15;16,2
So., 07.01.2018 07:30;9,4
So., 07.01.2018 07:45;12,252
So., 07.01.2018 08:00;11,7
So., 07.01.2018 08:15;13,752
So., 07.01.2018 08:30;20,352
So., 07.01.2018 08:45;22,8
So., 07.01.2018 09:00;11,552
So., 07.01.2018 09:15;9,452
So., 07.01.2018 09:30;13,852
So., 07.01.2018 09:45;16,852
So., 07.01.2018 10:00;19,7
So., 07.01.2018 10:15;28,8
So., 07.01.2018 10:30;29,252
So., 07.01.2018 10:45;30,152
So., 07.01.2018 11:00;26,932
So., 07.01.2018 11:15;31,66
So., 07.01.2018 11:30;28,672
So., 07.01.2018 11:45;27,272
So., 07.01.2018 12:00;28,572
So., 07.01.2018 12:15;26,8
So., 07.01.2018 12:30;26,32
So., 07.01.2018 12:45;26,412
So., 07.01.2018 13:00;23,372
So., 07.01.2018 13:15;27,852
So., 07.01.2018 13:30;24,7
So., 07.01.2018 13:45;27,76
So., 07.01.2018 14:00;23,632
So., 07.01.2018 14:15;18,6
So., 07.01.2018 14:30;16,1
So., 07.01.2018 14:45;12,052
So., 07.01.2018 15:00;12,752
So., 07.01.2018 15:15;13,252
So., 07.01.2018 15:30;9,252
So., 07.01.2018 15:45;8,504
So., 07.01.2018 16:00;7,552
So., 07.01.2018 16:15;6,752
So., 07.01.2018 16:30;4,3
So., 07.01.2018 16:45;4,4
So., 07.01.2018 17:00;4,452
So., 07.01.2018 17:15;4,7
So., 07.01.2018 17:30;5,9
So., 07.01.2018 17:45;4,8
So., 07.01.2018 18:00;3
So., 07.01.2018 18:15;0,5
So., 07.01.2018 18:30;0,652
So., 07.01.2018 18:45;1,552
So., 07.01.2018 19:00;3,5
So., 07.01.2018 19:15;4,9
So., 07.01.2018 19:30;4,8
So., 07.01.2018 19:45;5,3
So., 07.01.2018 20:00;5,8
So., 07.01.2018 20:15;5,7
So., 07.01.2018 20:30;6,3
So., 07.01.2018 20:45;6,3
So., 07.01.2018 21:00;4,9
So., 07.01.2018 21:15;3,9
So., 07.01.2018 21:30;3,4
So., 07.01.2018 21:45;3,1
So., 07.01.2018 22:00;4,3
So., 07.01.2018 22:15;4,2
So., 07.01.2018 22:30;6,7
So., 07.01.2018 22:45;14,1
So., 07.01.2018 23:00;28,8
So., 07.01.2018 23:15;30,8
So., 07.01.2018 23:30;33,9
So., 07.01.2018 23:45;33,7
So., 07.01.2018 00:00;34,7
Mo., 08.01.2018 00:15;36
Mo., 08.01.2018 00:30;36,3
Mo., 08.01.2018 00:45;37,4
Mo., 08.01.2018 01:00;37,4
Mo., 08.01.2018 01:15;37
Mo., 08.01.2018 01:30;36,5
Mo., 08.01.2018 01:45;35,2
Mo., 08.01.2018 02:00;38,9
Mo., 08.01.2018 02:15;39
Mo., 08.01.2018 02:30;30,1
Mo., 08.01.2018 02:45;35,6
Mo., 08.01.2018 03:00;35,7
Mo., 08.01.2018 03:15;26,2
Mo., 08.01.2018 03:30;25,1
Mo., 08.01.2018 03:45;36,3
Mo., 08.01.2018 04:00;34,7
Mo., 08.01.2018 04:15;27,5
Mo., 08.01.2018 04:30;32,052
Mo., 08.01.2018 04:45;33,9
Mo., 08.01.2018 05:00;33,4
Mo., 08.01.2018 05:15;34,5
Mo., 08.01.2018 05:30;35,152
Mo., 08.01.2018 05:45;35,7
Mo., 08.01.2018 06:00;33,7
Mo., 08.01.2018 06:15;26
Mo., 08.01.2018 06:30;17,8
Mo., 08.01.2018 06:45;18,1
Mo., 08.01.2018 07:00;16,1
Mo., 08.01.2018 07:15;11,9
Mo., 08.01.2018 07:30;9,2
Mo., 08.01.2018 07:45;2,7
Mo., 08.01.2018 08:00;0,6
Mo., 08.01.2018 08:15;0
Mo., 08.01.2018 08:30;2,4
Mo., 08.01.2018 08:45;1
Mo., 08.01.2018 09:00;8,6
Mo., 08.01.2018 09:15;12,452
Mo., 08.01.2018 09:30;9,5
Mo., 08.01.2018 09:45;12,7
Mo., 08.01.2018 10:00;15,3
Mo., 08.01.2018 10:15;17,2
Mo., 08.01.2018 10:30;23,8
Mo., 08.01.2018 10:45;27,8
Mo., 08.01.2018 11:00;34,9
Mo., 08.01.2018 11:15;41,3
Mo., 08.01.2018 11:30;57,3
Mo., 08.01.2018 11:45;86
Mo., 08.01.2018 12:00;111,94
Mo., 08.01.2018 12:15;145,22
Mo., 08.01.2018 12:30;128,76
Mo., 08.01.2018 12:45;142,52
Mo., 08.01.2018 13:00;190,4
Mo., 08.01.2018 13:15;203,98
Mo., 08.01.2018 13:30;191,62
Mo., 08.01.2018 13:45;168,24
Mo., 08.01.2018 14:00;172,9
Mo., 08.01.2018 14:15;120,7
Mo., 08.01.2018 14:30;145,8
Mo., 08.01.2018 14:45;129,4
Mo., 08.01.2018 15:00;75,4
Mo., 08.01.2018 15:15;28,2
Mo., 08.01.2018 15:30;18,9
Mo., 08.01.2018 15:45;19,5
Mo., 08.01.2018 16:00;11,4
Mo., 08.01.2018 16:15;7,9
Mo., 08.01.2018 16:30;6,2
Mo., 08.01.2018 16:45;6,2
Mo., 08.01.2018 17:00;4,7
Mo., 08.01.2018 17:15;6
Mo., 08.01.2018 17:30;5,3
Mo., 08.01.2018 17:45;4,2
Mo., 08.01.2018 18:00;3,6
Mo., 08.01.2018 18:15;0,6
Mo., 08.01.2018 18:30;0,7
Mo., 08.01.2018 18:45;3,6
Mo., 08.01.2018 19:00;5,1
Mo., 08.01.2018 19:15;4,3
Mo., 08.01.2018 19:30;2,8
Mo., 08.01.2018 19:45;2,7
Mo., 08.01.2018 20:00;4,1
Mo., 08.01.2018 20:15;3,4
Mo., 08.01.2018 20:30;6,3
Mo., 08.01.2018 20:45;7,2
Mo., 08.01.2018 21:00;7,8
Mo., 08.01.2018 21:15;6,1
Mo., 08.01.2018 21:30;4,9
Mo., 08.01.2018 21:45;14,5
Mo., 08.01.2018 22:00;6,8
Mo., 08.01.2018 22:15;18,9
Mo., 08.01.2018 22:30;24,4
Mo., 08.01.2018 22:45;16,9
Mo., 08.01.2018 23:00;16,1
Mo., 08.01.2018 23:15;15,1
Mo., 08.01.2018 23:30;14
Mo., 08.01.2018 23:45;17,2
Mo., 08.01.2018 00:00;18,1
Di., 09.01.2018 00:15;17,8
Di., 09.01.2018 00:30;25,1
Di., 09.01.2018 00:45;32,1
Di., 09.01.2018 01:00;17,6
Di., 09.01.2018 01:15;16,9
Di., 09.01.2018 01:30;18,5
Di., 09.01.2018 01:45;19,7
Di., 09.01.2018 02:00;21
Di., 09.01.2018 02:15;21,3
Di., 09.01.2018 02:30;21,9
Di., 09.01.2018 02:45;20,3
Di., 09.01.2018 03:00;21,2
Di., 09.01.2018 03:15;21,3
Di., 09.01.2018 03:30;18,8
Di., 09.01.2018 03:45;21
Di., 09.01.2018 04:00;21,9
Di., 09.01.2018 04:15;21,4
Di., 09.01.2018 04:30;20,2
Di., 09.01.2018 04:45;19
Di., 09.01.2018 05:00;19,2
Di., 09.01.2018 05:15;19,252
Di., 09.01.2018 05:30;21,3
Di., 09.01.2018 05:45;29,852
Di., 09.01.2018 06:00;30,4
Di., 09.01.2018 06:15;21
Di., 09.01.2018 06:30;20,1
Di., 09.01.2018 06:45;21,2
Di., 09.01.2018 07:00;16,3
Di., 09.01.2018 07:15;11,3
Di., 09.01.2018 07:30;1,2
Di., 09.01.2018 07:45;1
Di., 09.01.2018 08:00;0
Di., 09.01.2018 08:15;0
Di., 09.01.2018 08:30;0,1
Di., 09.01.2018 08:45;2,4
Di., 09.01.2018 09:00;9,7
Di., 09.01.2018 09:15;13,3
Di., 09.01.2018 09:30;13,5
Di., 09.01.2018 09:45;17,6
Di., 09.01.2018 10:00;24,9
Di., 09.01.2018 10:15;36,3
Di., 09.01.2018 10:30;40,5
Di., 09.01.2018 10:45;52,3
Di., 09.01.2018 11:00;68,352
Di., 09.01.2018 11:15;60,7
Di., 09.01.2018 11:30;58,2
Di., 09.01.2018 11:45;59,7
Di., 09.01.2018 12:00;76,608
Di., 09.01.2018 12:15;78,42
Di., 09.01.2018 12:30;88,732
Di., 09.01.2018 12:45;64,32
Di., 09.01.2018 13:00;51,2
Di., 09.01.2018 13:15;43,6
Di., 09.01.2018 13:30;38,8
Di., 09.01.2018 13:45;32,6
Di., 09.01.2018 14:00;34,7
Di., 09.01.2018 14:15;37,6
Di., 09.01.2018 14:30;47,2
Di., 09.01.2018 14:45;29,6
Di., 09.01.2018 15:00;19,4
Di., 09.01.2018 15:15;12,6
Di., 09.01.2018 15:30;9,5
Di., 09.01.2018 15:45;10,3
Di., 09.01.2018 16:00;16,2
Di., 09.01.2018 16:15;12,1
Di., 09.01.2018 16:30;9,152
Di., 09.01.2018 16:45;3,4
Di., 09.01.2018 17:00;3,9
Di., 09.01.2018 17:15;4,7
Di., 09.01.2018 17:30;4,5
Di., 09.01.2018 17:45;3
Di., 09.01.2018 18:00;1
Di., 09.01.2018 18:15;0,7
Di., 09.01.2018 18:30;0,7
Di., 09.01.2018 18:45;2,7
Di., 09.01.2018 19:00;3,7
Di., 09.01.2018 19:15;3,7
Di., 09.01.2018 19:30;3,7
Di., 09.01.2018 19:45;1,7
Di., 09.01.2018 20:00;0,4
Di., 09.01.2018 20:15;3,3
Di., 09.01.2018 20:30;3,4
Di., 09.01.2018 20:45;2,8
Di., 09.01.2018 21:00;3,6
Di., 09.01.2018 21:15;4,7
Di., 09.01.2018 21:30;1,9
Di., 09.01.2018 21:45;2,7
Di., 09.01.2018 22:00;1,8
Di., 09.01.2018 22:15;7,4
Di., 09.01.2018 22:30;15,2
Di., 09.01.2018 22:45;16
Di., 09.01.2018 23:00;14,7
Di., 09.01.2018 23:15;16,8
Di., 09.01.2018 23:30;19,8